[[{"header":{"parameterUnit":"m.s-1","parameterCategory":1,"la1":30.2991,"la2":30.254,"lo1":-89.0895,"lo2":-89.0444,"dy":0.0017,"dx":0.0017,"nx":28,"ny":28,"refTime":"2023-11-05T03:00:00:Z","depth":0,"parameterNumber":2,"parameterNumberName":"U-component_of_WINDS"},"data":[0,0,0,0,0,0,0,0,0,0,0,0,0,0,0,0,0,0,0,0,0,0,0,0,0,0,0,0,0,0,0,0,0,0,0,0,0,0,0,0,0,0,0,0,0,0,0,0,0,0,0,0,0,0,0,0,0,0,0.3021,0.3022,0,0.3159,0.3161,0.3162,0.3208,0.3207,0.3207,0.3206,0.3354,0.3359,0.3363,0,0,0,0,0,0,0,0,0,0,0,0,0,0.2801,0.2805,0.302,0.3022,0.3024,0.3159,0.3161,0.3163,0.3208,0.3207,0.3207,0.3206,0.3353,0.3358,0.3364,0,0,0,0,0,0,0,0,0,0,0,0,0,0.2914,0.2806,0.302,0.3063,0.3068,0.3159,0.3161,0.3163,0.3208,0.3207,0.3206,0.3205,0.3351,0.3358,0.3364,0.3425,0,0,0.3385,0.3388,0,0,0,0,0,0,0,0,0.2907,0.2922,0.3055,0.306,0.3066,0.3165,0.3138,0.3251,0.3208,0.3155,0.3206,0.3205,0.3293,0.3304,0.3332,0.3432,0.3438,0.3386,0.339,0.3393,0.3395,0,0,0,0,0,0,0,0.2899,0.2916,0.3076,0.3057,0.3063,0.3077,0.3092,0.316,0.3228,0.316,0.3163,0.3179,0.3295,0.3326,0.3336,0.344,0.3385,0.3391,0.3396,0.3398,0.3597,0.3598,0,0,0,0,0,0,0.2884,0.2909,0.3071,0.308,0.2982,0.3081,0.3098,0.3134,0.3227,0.324,0.3179,0.318,0.3315,0.3328,0.3341,0.3418,0.3393,0.3399,0.3403,0.3596,0.3597,0.3598,0,0,0,0,0,0,0.2879,0.2898,0.3066,0.2996,0.3018,0.3086,0.3126,0.3138,0.3168,0.3242,0.3255,0.3197,0.3314,0.3332,0.3403,0.3424,0.3402,0.3408,0.3594,0.3596,0.3598,0.3572,0,0,0,0,0,0,0.2872,0.2896,0.2918,0.2996,0.3021,0.3123,0.3128,0.3141,0.3179,0.3181,0.3262,0.3275,0.3315,0.3393,0.341,0.3433,0.3413,0.3593,0.3595,0.3597,0.3571,0.3573,0.3574,0,0,0,0,0,0.2864,0.2906,0.2919,0.2938,0.305,0.3124,0.3139,0.3183,0.318,0.3204,0.3251,0.3272,0.3419,0.34,0.342,0.3445,0.3592,0.3594,0.3597,0.3571,0.3572,0.3574,0,0,0,0,0,0,0.2832,0.2917,0.2932,0.3,0.3054,0.3132,0.3163,0.3183,0.3241,0.3241,0.3296,0.3313,0.3381,0.342,0.3397,0.3508,0.3507,0.3513,0.348,0.3482,0.3483,0.3472,0.3419,0,0,0,0,0,0.2832,0.2882,0.2956,0.3009,0.3035,0.3094,0.3128,0.3157,0.3216,0.324,0.3293,0.3351,0.3411,0.3449,0.3508,0.3578,0.3596,0.3605,0.3606,0.3607,0.3612,0.3652,0.3657,0.3607,0.3607,0.3607,0,0,0.2834,0.2887,0.2916,0.3004,0.3049,0.3102,0.3113,0.3169,0.321,0.3249,0.3319,0.336,0.3429,0.3499,0.3533,0.3535,0.363,0.361,0.361,0.3615,0.3655,0.366,0.3664,0.3609,0.3609,0.3609,0,0,0.2864,0.2909,0.2958,0.3003,0.307,0.3109,0.3121,0.3196,0.3223,0.3294,0.3325,0.3375,0.3476,0.3524,0.3561,0.3609,0.3631,0.3628,0.3634,0.3673,0.3676,0.368,0.3697,0.3703,0.3632,0.3632,0.3632,0,0.2858,0.2937,0.2981,0.3035,0.3073,0.3109,0.316,0.3202,0.3287,0.3313,0.3313,0.344,0.3489,0.3571,0.3583,0.3612,0.3628,0.3618,0.3672,0.3676,0.368,0.3697,0.3704,0.3632,0.3632,0.3632,0.3632,0,0.2927,0.2981,0.3013,0.3091,0.3133,0.3185,0.3238,0.3276,0.3302,0.3341,0.3413,0.3473,0.3544,0.3567,0.3593,0.3653,0.3651,0.3661,0.366,0.3683,0.37,0.3707,0.363,0.3631,0.3631,0.3631,0,0,0.294,0.304,0.3051,0.3087,0.3164,0.3209,0.3263,0.3331,0.3362,0.342,0.3467,0.3552,0.3561,0.3603,0.3636,0.367,0.3704,0.3675,0.3678,0.3678,0.3774,0.3766,0.3772,0.3718,0.372,0.3721,0.3768,0,0.298,0.3075,0.3117,0.3195,0.3246,0.3281,0.3329,0.3383,0.3421,0.3472,0.3517,0.3575,0.3583,0.3609,0.3644,0.3692,0.3724,0.3689,0.3765,0.3767,0.3745,0.3781,0.3773,0.3814,0.3775,0.3776,0.3777,0,0.3039,0.3093,0.3175,0.3246,0.3269,0.3311,0.3376,0.3424,0.3487,0.3513,0.356,0.359,0.3651,0.3646,0.3731,0.3706,0.374,0.3769,0.3771,0.378,0.3773,0.379,0.3828,0.3834,0.3788,0.3787,0.3786,0,0.3039,0.3134,0.3195,0.3225,0.3309,0.3338,0.3375,0.3436,0.3474,0.3532,0.3557,0.3623,0.3658,0.3709,0.3757,0.3749,0.3838,0.3837,0.3862,0.3861,0.3879,0.3877,0.3922,0.3901,0.3901,0.3901,0.3901,0,0.3079,0.3128,0.3196,0.3234,0.329,0.3338,0.3393,0.3433,0.3487,0.3535,0.3571,0.3615,0.3676,0.3729,0.3768,0.3832,0.3848,0.3872,0.3882,0.3868,0.3865,0.3891,0.3889,0.3902,0.3902,0.3902,0.3901,0,0.3089,0.3136,0.3205,0.3279,0.3299,0.3337,0.3401,0.344,0.348,0.354,0.3557,0.3621,0.3685,0.3738,0.3823,0.3849,0.3916,0.3927,0.3894,0.3899,0.392,0.3917,0.3983,0.3995,0.3966,0.3966,0.3966,0,0.311,0.3148,0.3225,0.3258,0.3294,0.3347,0.3386,0.3435,0.3474,0.3548,0.3578,0.3644,0.3699,0.38,0.3856,0.3921,0.3934,0.3953,0.3944,0.393,0.3934,0.3931,0.3935,0.3953,0.3953,0.3953,0.3953,0,0.3144,0.3165,0.3218,0.3279,0.3323,0.3374,0.3426,0.3452,0.3512,0.3554,0.3618,0.3661,0.3746,0.3812,0.3883,0.3924,0.3949,0.3956,0.3965,0.3951,0.393,0.3942,0.3895,0.3954,0.3954,0.3954,0.3954,0.3954,0.316,0.3195,0.3254,0.3312,0.3356,0.3404,0.3444,0.3488,0.3542,0.3613,0.364,0.3706,0.3769,0.3867,0.3907,0.3961,0.3965,0.3978,0.3981,0.3984,0.3982,0.3922,0.3975,0.3975,0.3975,0.3975,0.3975,0,0.3195,0.3234,0.3287,0.3357,0.3403,0.3421,0.348,0.3517,0.3574,0.3629,0.3682,0.3757,0.382,0.388,0.3948,0.3979,0.3993,0.3995,0.3993,0.4002,0.3975,0.396,0.3983,0.3983,0.3983,0.3983,0.3983,0.3983,0.3218,0.3278,0.3307,0.339,0.3431,0.3493,0.3525,0.357,0.3614,0.3695,0.3747,0.3785,0.3843,0.3915,0.3974,0.3991,0.4014,0.4013,0.4033,0.4006,0.4004,0.4003,0.3989,0.4018,0.4018,0.4056,0.4056,0.4056]},{"header":{"parameterUnit":"m.s-1","parameterCategory":1,"la1":30.2991,"la2":30.254,"lo1":-89.0895,"lo2":-89.0444,"dy":0.0017,"dx":0.0017,"nx":28,"ny":28,"refTime":"2023-11-05T03:00:00:Z","depth":0,"parameterNumber":3,"parameterNumberName":"V-component_of_WINDS"},"data":[0,0,0,0,0,0,0,0,0,0,0,0,0,0,0,0,0,0,0,0,0,0,0,0,0,0,0,0,0,0,0,0,0,0,0,0,0,0,0,0,0,0,0,0,0,0,0,0,0,0,0,0,0,0,0,0,0,0,0.6614,0.6612,0,0.6482,0.648,0.6479,0.6413,0.6413,0.6413,0.6413,0.6272,0.6269,0.6265,0,0,0,0,0,0,0,0,0,0,0,0,0,0.6802,0.6799,0.6614,0.6612,0.6611,0.6482,0.648,0.6479,0.6413,0.6413,0.6413,0.6413,0.6274,0.6269,0.6265,0,0,0,0,0,0,0,0,0,0,0,0,0,0.67,0.6798,0.6614,0.6562,0.6556,0.6483,0.648,0.6478,0.6413,0.6413,0.6413,0.6413,0.6275,0.627,0.6264,0.623,0,0,0.6247,0.6245,0,0,0,0,0,0,0,0,0.6706,0.6693,0.6572,0.6566,0.6559,0.6464,0.6495,0.6395,0.6413,0.6467,0.6413,0.6413,0.6336,0.6325,0.63,0.6224,0.6218,0.6247,0.6243,0.6241,0.6239,0,0,0,0,0,0,0,0.6713,0.6699,0.6561,0.657,0.6562,0.6543,0.6529,0.6476,0.6403,0.6462,0.6457,0.6443,0.6332,0.6306,0.6297,0.6216,0.6247,0.6242,0.6238,0.6236,0.6102,0.6102,0,0,0,0,0,0,0.6729,0.6705,0.6566,0.6557,0.6634,0.654,0.6524,0.6494,0.6403,0.639,0.6443,0.644,0.6315,0.6303,0.6291,0.6245,0.6241,0.6236,0.6232,0.6102,0.6102,0.6102,0,0,0,0,0,0,0.6734,0.6718,0.6571,0.663,0.661,0.6537,0.6504,0.6492,0.6465,0.6389,0.6375,0.643,0.6315,0.6299,0.6246,0.6239,0.6233,0.6228,0.6103,0.6102,0.6102,0.6152,0,0,0,0,0,0,0.6739,0.672,0.6708,0.663,0.6607,0.653,0.6504,0.6489,0.6457,0.6452,0.6373,0.636,0.6314,0.6255,0.624,0.6231,0.6224,0.6103,0.6103,0.6102,0.6151,0.6153,0.6156,0,0,0,0,0,0.6746,0.6726,0.6708,0.6691,0.6591,0.653,0.6516,0.6465,0.6456,0.6443,0.6393,0.6362,0.6242,0.625,0.6233,0.6222,0.6103,0.6103,0.6102,0.6149,0.6153,0.6156,0,0,0,0,0,0,0.6803,0.6715,0.6693,0.6648,0.6597,0.6519,0.65,0.6471,0.642,0.6417,0.6354,0.6337,0.6289,0.625,0.626,0.6183,0.6169,0.6166,0.6211,0.6214,0.6216,0.6226,0.6219,0,0,0,0,0,0.6811,0.6771,0.6695,0.6662,0.6638,0.6573,0.6545,0.651,0.6454,0.6431,0.6378,0.6323,0.6273,0.6241,0.619,0.6144,0.6125,0.6128,0.6131,0.6134,0.6131,0.6102,0.6102,0.61,0.61,0.61,0,0,0.6826,0.6773,0.6751,0.6672,0.6629,0.6586,0.6556,0.6512,0.648,0.6424,0.6371,0.633,0.6264,0.6214,0.6189,0.618,0.6127,0.6133,0.6136,0.6131,0.6102,0.6102,0.6102,0.61,0.61,0.61,0,0,0.6831,0.6787,0.6755,0.6712,0.6646,0.6604,0.6596,0.6521,0.6492,0.6438,0.6395,0.6354,0.6269,0.6224,0.619,0.6176,0.6145,0.6161,0.6175,0.6147,0.6147,0.6147,0.6141,0.614,0.6159,0.6159,0.6159,0,0.6857,0.6794,0.6741,0.67,0.6666,0.6615,0.658,0.654,0.6461,0.6438,0.6429,0.632,0.6273,0.6211,0.6207,0.6182,0.6169,0.617,0.6152,0.6151,0.615,0.6144,0.6142,0.6161,0.6161,0.6161,0.616,0,0.6828,0.6785,0.6766,0.6692,0.6656,0.6618,0.6558,0.6526,0.6494,0.6452,0.6396,0.6337,0.6273,0.6255,0.6223,0.6188,0.6184,0.6165,0.6149,0.6154,0.6146,0.6144,0.6165,0.6164,0.6163,0.6162,0,0,0.6867,0.6764,0.6758,0.6724,0.6647,0.6611,0.657,0.6509,0.6483,0.6429,0.6392,0.6321,0.6302,0.6263,0.6225,0.6201,0.6192,0.6183,0.6181,0.6187,0.6148,0.6164,0.6162,0.6171,0.6171,0.617,0.6153,0,0.6861,0.6788,0.6738,0.6683,0.6641,0.6591,0.6554,0.6502,0.6461,0.6417,0.637,0.6321,0.63,0.6276,0.625,0.6199,0.6184,0.6199,0.6134,0.6132,0.6152,0.6158,0.6174,0.6162,0.615,0.615,0.615,0,0.6845,0.6795,0.6736,0.6663,0.6643,0.6612,0.6551,0.651,0.6449,0.642,0.6377,0.6338,0.629,0.6278,0.621,0.6222,0.6192,0.6162,0.6161,0.6152,0.6141,0.6149,0.6157,0.6155,0.6145,0.6145,0.6146,0,0.6878,0.6795,0.6749,0.6721,0.6635,0.6613,0.6576,0.6515,0.6481,0.6427,0.6404,0.6344,0.6312,0.6265,0.621,0.6207,0.6147,0.6131,0.612,0.6122,0.611,0.6111,0.6112,0.6091,0.6091,0.6091,0.6092,0,0.6877,0.6843,0.6763,0.6734,0.6693,0.6636,0.6596,0.6554,0.65,0.6461,0.6413,0.6377,0.6306,0.6261,0.6217,0.6166,0.6152,0.6126,0.6115,0.613,0.6133,0.6109,0.6109,0.6091,0.6091,0.6091,0.6091,0,0.6908,0.6853,0.6799,0.6722,0.6701,0.6675,0.6607,0.6576,0.6532,0.6483,0.6467,0.6397,0.6341,0.6281,0.6204,0.6175,0.6126,0.611,0.6147,0.6141,0.6133,0.6134,0.6118,0.6112,0.6096,0.6097,0.6097,0,0.6911,0.6883,0.6803,0.6774,0.6739,0.6692,0.6657,0.6598,0.6564,0.6491,0.6468,0.6409,0.6358,0.627,0.6211,0.6151,0.6133,0.6131,0.6124,0.614,0.6132,0.6134,0.6131,0.6134,0.6135,0.6135,0.6135,0,0.6921,0.6895,0.6848,0.6791,0.6751,0.6702,0.6651,0.663,0.656,0.6523,0.6466,0.6427,0.6348,0.6289,0.6222,0.6181,0.6146,0.6138,0.6132,0.6148,0.617,0.6157,0.6154,0.6139,0.6138,0.6138,0.6138,0.6138,0.6937,0.691,0.685,0.6798,0.6754,0.6707,0.6674,0.6626,0.6577,0.651,0.6478,0.642,0.6357,0.6263,0.6223,0.6175,0.6165,0.6157,0.6155,0.6153,0.6157,0.6178,0.6163,0.6163,0.6162,0.6162,0.6162,0,0.6945,0.6903,0.6856,0.6788,0.6746,0.6718,0.666,0.6627,0.6578,0.6523,0.6474,0.6407,0.6348,0.6284,0.6222,0.6196,0.6178,0.6181,0.6182,0.6173,0.617,0.6181,0.6196,0.6196,0.6196,0.6196,0.6196,0.6196,0.6944,0.6897,0.6863,0.6792,0.6749,0.6694,0.6663,0.6619,0.6575,0.6503,0.6455,0.6414,0.6354,0.6286,0.6231,0.6213,0.6192,0.62,0.6177,0.6176,0.6173,0.6171,0.6181,0.6196,0.6196,0.6184,0.6184,0.6184]}]]